Regional Weather Roundup
Issued by NWS Cleveland, OH

Home | Current Version | Previous Version | Graphics & Text | Print | Product List | Glossary On
Versions: 1 2 3 4 5 6 7 8 9 10 11 12 13 14 15 16 17 18 19 20 21 22 23 24 25 26 27 28 29 30 31 32 33 34 35 36 37 38 39 40 41 42 43 44 45 46 47 48 49 50
000
ASUS41 KCLE 291210
RWRCLE
OHIO REGIONAL WEATHER ROUNDUP
NATIONAL WEATHER SERVICE CLEVELAND, OH
800 AM EDT TUE JUL 29 2014

NOTE: "FAIR" INDICATES FEW OR NO CLOUDS BELOW 12,000 FEET WITH NO
SIGNIFICANT WEATHER AND/OR OBSTRUCTIONS TO VISIBILITY.

OHZ001>008-015>018-024>027-034-035-043-044-291300-
   NORTHWEST OHIO

CITY           SKY/WX    TMP DP  RH WIND       PRES   REMARKS
DEFIANCE       SUNNY     51  49  92 S3        30.04R
FINDLAY        SUNNY     53  49  86 W5        30.03R
TOLEDO EXPRESS SUNNY     53  48  83 W5        30.02S
TOLEDO EXEC    SUNNY     55  49  80 W6        30.03R
LIMA           SUNNY     54  51  90 NW3       30.04R
$$

OHZ009>014-019>023-028>033-038-089-291300-
   NORTHEAST OHIO

CITY           SKY/WX    TMP DP  RH WIND       PRES   REMARKS
CLE-HOPKINS    CLOUDY    58  51  78 SW6       30.00R
CLE-LAKEFRONT  CLOUDY    63  48  58 N9        29.97R
CUY CO. ARPT   PTSUNNY   63  52  67 N6        29.99R
LORAIN-ELYRIA  CLOUDY    59  51  75 W5        30.00R
ASHTABULA      CLOUDY    60  51  72 NW6       29.97R
AKRON-CANTON   PTSUNNY   55  49  80 W6        29.99R
WOOSTER        MOSUNNY   53  50  89 W3        30.01R
MANSFIELD      MOSUNNY   53  49  86 W3        30.02R
YOUNGSTOWN     CLOUDY    56  50  80 W5        29.97R
$$

OHZ042-051>053-060>062-070>072-077>081-291300-
  SOUTHWEST OHIO

CITY           SKY/WX    TMP DP  RH WIND       PRES   REMARKS
CINC-COVINGTON MOSUNNY   54  50  86 NW8       30.04R
CINC-LUNKEN    SUNNY     55  51  86 CALM      30.05R
HAMILTON       PTSUNNY   54  52  93 NW3       30.05R
DAYTON         PTSUNNY   56  52  86 NW6       30.05R
WRIGHT-PAT AFB PTSUNNY   56  53  89 N8        30.04R
DAYTON GENERAL MOSUNNY   55  52  89 N7        30.03R
WILMINGTON     NOT AVBL
$$

OHZ036-037-039>041-045>050-054>059-063>069-073>076-082>088-291300-
  CENTRAL AND SOUTHEAST OHIO

CITY           SKY/WX    TMP DP  RH WIND       PRES   REMARKS
COLUMBUS       MOSUNNY   61  52  72 NE5       30.01R
OSU AIRPORT    CLOUDY    59  55  87 CALM      30.02R
BOLTON FIELD   CLOUDY    59  55  88 CALM      30.02R
RICKENBACK AFB CLOUDY    61  51  70 NE3       30.01R
NEWARK         PTSUNNY   58  53  84 CALM      30.01R
MARION         CLOUDY    55  51  86 NW3       30.03R
LANCASTER      CLOUDY    59  55  87 CALM      30.02R
ZANESVILLE     MOSUNNY   58  53  84 CALM      30.01R
NEW PHILLY     SUNNY     54  52  93 CALM      30.01R
$$


USA.gov is the U.S. government's official web portal to all federal, state and local government web resources and services.